Purchase, NY

5:27 AM EST on February 09, 2016 (GMT -0500)
Westchester County

Weather History for KHPN - July, 2012

Change the Weather History Date:

Friday, July 13, 2012

  Actual Average Record
Temperature  
Mean Temperature 76 °F -  
Max Temperature 87 °F 80 °F 93 °F (1983)
Min Temperature 68 °F 62 °F 55 °F (2001)
Cooling Degree Days 11    
Growing Degree Days 26 (Base 50)    
Moisture  
Dew Point 63 °F    
Average Humidity 65    
Maximum Humidity 81    
Minimum Humidity 49    
Precipitation  
Precipitation 0.00 in - - ()
Sea Level Pressure  
Sea Level Pressure 30.17 in    
Wind  
Wind Speed 2 mph (SSE)    
Max Wind Speed 9 mph    
Max Gust Speed -    
Visibility 10 miles    
Events      
Averages and records for this station are not official NWS values.
T = Trace of Precipitation, MM = Missing Value Source: NWS Daily Summary

Daily Weather History Graph

Daily Weather History Graph

Search for Another Location

Airport or City:

Trip Planner

Search our weather history database for the weather conditions in past years. The results will help you decide how hot, cold, wet, or windy it might be!

Date:

Astronomy

Jul. 13, 2012 Rise Set
Actual Time 5:34 AM EDT 8:26 PM EDT
Civil Twilight 5:01 AM EDT 8:59 PM EDT
Nautical Twilight 4:20 AM EDT 9:40 PM EDT
Astronomical Twilight 3:32 AM EDT 10:28 PM EDT
Moon 1:10 AM EDT (7/13) 3:53 PM EDT (7/13)
Length of Visible Light 15h 57m
Length of Day
14h 52m
Waning Crescent, 26% of the Moon is Illuminated
Jul 13
Waning Crescent
Jul 19
New
Jul 26
First Quarter
Aug 1
Full
Aug 9
Last Quarter

Hourly Weather History & Observations

Time (EDT) Temp. Heat Index Dew Point Humidity Pressure Visibility Wind Dir Wind Speed Gust Speed Precip Events Conditions
12:56 AM 68.0 °F - 62.1 °F 81% 30.17 in 10.0 mi Calm Calm - N/A   Scattered Clouds
1:56 AM 69.1 °F - 62.1 °F 78% 30.17 in 10.0 mi Calm Calm - N/A   Partly Cloudy
2:56 AM 70.0 °F - 61.0 °F 73% 30.17 in 10.0 mi Calm Calm - N/A   Overcast
3:56 AM 68.0 °F - 61.0 °F 78% 30.16 in 10.0 mi Calm Calm - N/A   Clear
4:56 AM 68.0 °F - 61.0 °F 78% 30.17 in 10.0 mi Calm Calm - N/A   Clear
5:56 AM 68.0 °F - 62.1 °F 81% 30.18 in 10.0 mi Calm Calm - N/A   Scattered Clouds
6:56 AM 71.1 °F - 61.0 °F 70% 30.18 in 10.0 mi Calm Calm - N/A   Scattered Clouds
7:56 AM 73.9 °F - 62.1 °F 66% 30.19 in 10.0 mi Variable 3.5 mph - N/A   Scattered Clouds
8:56 AM 77.0 °F - 62.1 °F 60% 30.19 in 10.0 mi Variable 3.5 mph - N/A   Partly Cloudy
9:56 AM 79.0 °F - 62.1 °F 56% 30.19 in 10.0 mi Calm Calm - N/A   Partly Cloudy
10:56 AM 81.0 °F 82.2 °F 63.0 °F 54% 30.19 in 10.0 mi Calm Calm - N/A   Partly Cloudy
11:56 AM 84.0 °F 85.4 °F 64.0 °F 51% 30.18 in 10.0 mi Calm Calm - N/A   Mostly Cloudy
12:56 PM 84.9 °F 86.1 °F 64.0 °F 49% 30.18 in 10.0 mi SE 4.6 mph - N/A   Mostly Cloudy
1:56 PM 84.9 °F 86.6 °F 64.9 °F 51% 30.17 in 10.0 mi Variable 3.5 mph - N/A   Mostly Cloudy
2:56 PM 84.9 °F 86.1 °F 64.0 °F 49% 30.16 in 10.0 mi South 4.6 mph - N/A   Mostly Cloudy
3:56 PM 82.9 °F 84.4 °F 64.0 °F 53% 30.16 in 10.0 mi SE 8.1 mph - N/A   Mostly Cloudy
4:56 PM 82.9 °F 84.6 °F 64.9 °F 54% 30.14 in 10.0 mi SSE 9.2 mph - N/A   Mostly Cloudy
5:56 PM 81.0 °F 82.7 °F 64.9 °F 58% 30.14 in 10.0 mi South 8.1 mph - N/A   Mostly Cloudy
6:56 PM 80.1 °F 81.7 °F 64.0 °F 58% 30.14 in 10.0 mi South 6.9 mph - N/A   Mostly Cloudy
7:56 PM 78.1 °F - 64.0 °F 62% 30.15 in 10.0 mi SSE 5.8 mph - N/A   Mostly Cloudy
8:56 PM 77.0 °F - 64.9 °F 66% 30.15 in 10.0 mi South 5.8 mph - N/A   Mostly Cloudy
9:56 PM 75.0 °F - 64.9 °F 71% 30.16 in 10.0 mi SE 3.5 mph - N/A   Partly Cloudy
10:56 PM 73.9 °F - 66.9 °F 79% 30.15 in 10.0 mi Calm Calm - 0.00 in   Clear
11:56 PM 73.4 °F - 66.2 °F 78% 30.17 in 10.0 mi Calm Calm - N/A   Overcast